Details From SBRF - Recife Intl
To SBMO - Zumbi Dos Palmares
Flight Number -
Tags generated
Created
Modified
Stats Distance 98 nm / 181 km
Max Altitude 10,300 ft / 3,139 m
Waypoints 3
Social Downloads 1
Likes 0
Share VATSIM

Download

Looking for another format? Having issues loading an existing format? Contact us
Advertisement - Login to hide

Notes

Basic altitude profile: - Ascent Rate: 2500ft/min - Ascent Speed: 250kts - Cruise Altitude: 35000ft - Cruise Speed: 420kts - Descent Rate: 1500ft/min - Descent Speed: 250kts Options: - Use NATs: yes - Use PACOTS: yes - Use low airways: yes - Use high airways: yes

Route

SBRF UKARI SBMO

ID Type Via Altitude Latitude Longitude Leg Dist Tot Dist Heading (true) Name
O SBRF APT - 0 ft / 0 m -8.12790˚ -34.92298˚ - 0 nm - Recife Intl
UKARI FIX - 10,300 ft / 3,139 m -8.83133˚ -35.36300˚ 49 nm 49 nm 212° / 212° -
O SBMO APT - 0 ft / 0 m -9.51081˚ -35.79168˚ 48 nm 97 nm 212° / 212° Zumbi Dos Palmares

Altitude Profile

Advertisement - Login to hide

SBRF

Details ICAO SBRF (REC)
Name Recife Intl
Region Brazil
Timezone America/Recife (UTC-3.0)
Stats Elevation 33 ft / 10 m (AMSL)
Location -8.127896° -34.922981°
Runways 2
Magnetic Variation 22.088° W

METAR

SBRF 142100Z 12008KT 9999 SCT025 27/21 Q1012

Decode

TAF

TAF SBRF 141600Z 1418/1518 11008KT 9999 SCT023 TN26/1508Z TX30/1514Z RMK PCN

Decode

Departure Runways

ID Width Length Bearing (true) Bearing (mag) Surface Threshold Offset Overrun Length
01 98 ft / 30 m 4,979 ft / 1,518 m 304.20° 326.29° Asphalt 300 ft / 91 m 0 ft / 0 m
18 148 ft / 45 m 9,915 ft / 3,022 m 161.91° 184.00° Asphalt 1,225 ft / 373 m 0 ft / 0 m
19 98 ft / 30 m 4,979 ft / 1,518 m 124.20° 146.29° Asphalt 300 ft / 91 m 0 ft / 0 m
36 148 ft / 45 m 9,915 ft / 3,022 m 341.91° 4.00° Asphalt 0 ft / 0 m 350 ft / 107 m

SBMO

Details ICAO SBMO (MCZ)
Name Zumbi Dos Palmares
Region Brazil
Timezone America/Maceio (UTC-3.0)
Stats Elevation 387 ft / 118 m (AMSL)
Location -9.510808° -35.791677°
Runways 1
Magnetic Variation 22.600° W

METAR

SBMO 142100Z 11009KT CAVOK 25/20 Q1013

Decode

TAF

TAF SBMO 141600Z 1418/1518 10013KT 9999 SCT023 TX31/1418Z TN23/1507Z BECMG 1422/1423 08005KT BECMG 1510/1511 10013KT RMK PCN

Decode

Destination Runways

ID Width Length Bearing (true) Bearing (mag) Surface Threshold Offset Overrun Length
12 148 ft / 45 m 8,528 ft / 2,599 m 100.73° 123.33° Asphalt 0 ft / 0 m 210 ft / 64 m
30 148 ft / 45 m 8,528 ft / 2,599 m 280.73° 303.33° Asphalt 0 ft / 0 m 210 ft / 64 m

Approach Navaids

Runway Type Ident Frequency Range Bearing (true) Bearing (mag) Slope Elevation
12 Localiser IMO 109.30 MHz 18 nm / 33 km 100.77° 123.37° - 387 ft / 118 m (AMSL)
12 Glidescope IMO 109.30 MHz 10 nm / 19 km 100.73° 123.33° 3.03° 387 ft / 118 m (AMSL)
12 DME IMO 109.30 MHz 18 nm / 33 km - - - 387 ft / 118 m (AMSL)

Popular Alternatives